Content
SEND FEEDBACK

Daily
Averages
Monthly
Summary
Brazil

CUIABA, MATO GROSSO


Home > South America > Brazil > Mato Grosso
Elevation: 623 feet     Latitude: 15 38S     Longitude: 056 06W

WEATHER
 
SELECT A DAY
Number of Records: 167,944;   Date Range: 6/30/96 - 8/31/14
 
SHARE

PRINT THIS DATA

[ ← Previous Day ]
WEATHER ALMANAC - AUGUST 15, 2013
[ Next Day → ]
[ °C ]   °F
Weather ElementAverageHighLow
Temperature62.3 °F75.2 °F (3:00 pm)51.8 °F (4:00 am)
Dewpoint37.3 °F41 °F (1:00 am)33.8 °F (3:00 pm)
Humidity40.5 %62 % (4:00 am)22 % (3:00 pm)
Barometer30.12 in30.20 in (8:00 am)30.04 in (2:00 pm)
Wind Speed10 mph21.9 mph (6:00 am)
Weather ElementAverage
Visibility12 mi
Wind DirectionSSW (186.5 °)

Weather ElementTotal
Precipitation---
Heating Degree Days1.5 (Base 65)
Growing Degree Days13.5 (Base 50)
Averaged from 26 records on August 15, 2013
WEATHER CONDITIONS BREAKOUT
WIND DIRECTION BREAKOUT
WEATHER BY HOUR - AUGUST 15, 2013
[ °C ]   °F
Local TimeTemperatureDewpointHumidityBarometerVisibilityWind DirectionWind SpeedGust SpeedPrecipitationEventsConditions
1:00 AM55.4 °F41.0 °F58 %30.18 inSSW (210°)11.5 mphClear
2:00 AM54.0 °F40.0 °F47 %30.18 in12.0 miSSW (200°)10.4 mph
2:00 AM53.6 °F39.2 °F58 %30.18 inSSW (200°)10.4 mphClear
3:00 AM53.6 °F39.2 °F58 %30.15 inSSW (210°)11.5 mphClear
4:00 AM51.8 °F39.2 °F62 %30.15 inSSW (200°)10.4 mphClear
5:00 AM51.8 °F37.4 °F58 %30.15 inSouth (190°)9.2 mphClear
6:00 AM51.8 °F37.4 °F58 %30.15 inSouth (190°)21.9 mphClear
7:00 AM51.8 °F37.4 °F58 %30.18 inSouth (190°)9.2 mphClear
8:00 AM55.0 °F36.0 °F37 %30.20 in12.0 miSouth (190°)12.7 mph
8:00 AM55.4 °F35.6 °F47 %30.18 inSouth (190°)12.7 mphClear
9:00 AM59.0 °F37.4 °F45 %30.18 inSouth (170°)13.8 mphClear
10:00 AM62.6 °F35.6 °F37 %30.18 inSouth (170°)12.7 mphClear
11:00 AM66.2 °F35.6 °F32 %30.15 inSouth (170°)10.4 mphClear
12:00 PM69.8 °F37.4 °F31 %30.12 inSSW (200°)10.4 mphClear
1:00 PM71.6 °F35.6 °F27 %30.09 inSouth (180°)13.8 mphClear
2:00 PM73.4 °F35.6 °F25 %30.04 inSouth (170°)9.2 mphClear
3:00 PM75.2 °F33.8 °F22 %30.04 inSouth (190°)9.2 mphClear
4:00 PM75.2 °F33.8 °F22 %30.04 inSSE (160°)11.5 mphClear
5:00 PM73.4 °F35.6 °F25 %30.04 inSSE (160°)8.1 mphClear
6:00 PM69.8 °F37.4 °F31 %30.04 inSouth (180°)6.9 mphClear
7:00 PM68.0 °F37.4 °F33 %30.06 inSouth (190°)5.8 mphClear
8:00 PM66.0 °F37.0 °F23 %30.07 in12.0 miSSE (160°)6.9 mph
8:00 PM66.2 °F37.4 °F35 %30.06 inSSE (160°)6.9 mphClear
9:00 PM64.4 °F39.2 °F40 %30.06 inSSW (210°)5.8 mphClear
10:00 PM62.6 °F39.2 °F42 %30.06 inSSW (210°)4.6 mphClear
11:00 PM62.6 °F39.2 °F42 %30.06 inSSW (200°)4.6 mphClear
Hourly data recorded from SBCY, located miles away from Cuiaba, Mato Grosso







STORIES FROM OUR PARTNERS